Location: Ash Swamp
(41.5170°N, 74.6157°W)
Time: 17:20:48
(UTC+00:00)

Cosmos 1666 - Pass Details

Date: 14 July 2020
Orbit: 496 x 521 km, 82.5° (Epoch: 04 August)

Event Time Altitude Azimuth Distance (km) Brightness Sun altitude
Exits shadow 07:32:40 44° 242° (WSW) 705 2.9 -18.2°
Maximum altitude 07:33:20 51° 280° (W) 640 2.9 -18.1°
Drops below altitude 10° 07:37:02 10° 358° (N) 1,722 6.1 -17.7°
Sets 07:39:12 0° 3° (N) 2,607 7.2 -17.4°
